GW3787 Weather Reports


Display with metric or nautical units.
time (UTC)temp
F
wind
direction
speed
MPH
gust
MPH
rain 1hr
in
rain 24hr
in
rain mn
in
humidity
%
barometer
mb
20260510210050 75 220 12.0 19.0 0.00 0.00 0.00 22 1009.8
20260510204601 74 205 8.0 14.0 0.00 0.00 0.00 23 1010.0
20260510203045 73 204 8.0 19.0 0.00 0.00 0.00 23 1010.3
20260510201543 73 248 11.0 18.0 0.00 0.00 0.00 25 1010.6
20260510200047 73 219 8.0 18.0 0.00 0.00 0.00 25 1010.7
20260510194542 73 215 14.0 19.0 0.00 0.00 0.00 25 1010.8
20260510193038 73 237 14.0 18.0 0.00 0.00 0.00 25 1010.9
20260510191538 71 214 9.0 20.0 0.00 0.00 0.00 26 1011.3
20260510190043 70 198 12.0 18.0 0.00 0.00 0.00 28 1011.5
20260510184529 70 258 8.0 19.0 0.00 0.00 0.00 29 1011.5
20260510183028 70 214 13.0 19.0 0.00 0.00 0.00 29 1011.9
20260510181527 70 203 12.0 15.0 0.00 0.00 0.00 29 1012.0
20260510180021 69 216 7.0 16.0 0.00 0.00 0.00 30 1012.3
20260510174520 68 230 9.0 17.0 0.00 0.00 0.00 31 1012.5
20260510173015 68 203 9.0 17.0 0.00 0.00 0.00 32 1012.7
20260510171519 67 218 11.0 14.0 0.00 0.00 0.00 34 1012.9
20260510170008 66 226 9.0 11.0 0.00 0.00 0.00 37 1013.0
20260510164506 65 205 8.0 13.0 0.00 0.00 0.00 39 1013.0
20260510163004 65 210 9.0 16.0 0.00 0.00 0.00 40 1013.2
20260510161502 65 205 9.0 15.0 0.00 0.00 0.00 40 1013.3
20260510160059 64 230 9.0 13.0 0.00 0.00 0.00 41 1013.4
20260510154600 64 205 10.0 15.0 0.00 0.00 0.00 39 1013.5
20260510153059 65 233 10.0 16.0 0.00 0.00 0.00 39 1013.7
20260510151552 64 236 9.0 15.0 0.00 0.00 0.00 39 1013.7
20260510150052 63 230 10.0 15.0 0.00 0.00 0.00 39 1013.8
20260510144557 62 229 10.0 14.0 0.00 0.00 0.00 43 1014.0
20260510143041 61 248 10.0 15.0 0.00 0.00 0.00 46 1014.0
20260510141537 59 238 9.0 12.0 0.00 0.00 0.00 54 1014.1
20260510140032 54 70 0.0 0.0 0.00 0.00 0.00 75 1014.2
20260510134528 51 70 0.0 2.0 0.00 0.00 0.00 80 1014.3
20260510133025 48 70 0.0 3.0 0.00 0.00 0.00 81 1014.4
20260510131518 46 70 0.0 0.0 0.00 0.00 0.00 80 1014.4
20260510130015 46 70 0.0 0.0 0.00 0.00 0.00 77 1014.5
20260510124512 45 70 0.0 0.0 0.00 0.00 0.00 77 1014.4
20260510123008 44 70 0.0 0.0 0.00 0.00 0.00 78 1014.5
20260510121506 44 70 0.0 1.0 0.00 0.00 0.00 80 1014.8
20260510120003 44 70 4.0 6.0 0.00 0.00 0.00 82 1014.8
20260510114505 42 70 2.0 5.0 0.00 0.00 0.00 82 1014.8
20260510113102 43 70 2.0 5.0 0.00 0.00 0.00 82 1015.0
20260510111601 43 70 0.0 5.0 0.00 0.00 0.00 82 1015.1
20260510110104 44 68 3.0 5.0 0.00 0.00 0.00 83 1015.2
20260510104557 43 68 5.0 8.0 0.00 0.00 0.00 85 1015.4
20260510103056 41 67 2.0 5.0 0.00 0.00 0.00 86 1015.4
20260510101604 40 67 4.0 5.0 0.00 0.00 0.00 87 1015.5
20260510100059 38 67 0.0 3.0 0.00 0.00 0.00 86 1015.6
20260510094554 38 67 0.0 0.0 0.00 0.00 0.00 85 1015.6
20260510093049 39 67 0.0 0.0 0.00 0.00 0.00 85 1015.5
20260510091548 39 67 0.0 0.0 0.00 0.00 0.00 85 1015.4
20260510090045 39 67 0.0 2.0 0.00 0.00 0.00 83 1015.4
20260510084552 40 67 0.0 0.0 0.00 0.00 0.00 83 1015.6
20260510083042 41 67 0.0 1.0 0.00 0.00 0.00 83 1015.7
20260510081544 41 67 0.0 4.0 0.00 0.00 0.00 84 1015.7
20260510080056 41 67 0.0 1.0 0.00 0.00 0.00 83 1015.7
20260510074541 41 67 0.0 3.0 0.00 0.00 0.00 83 1015.6
20260510073047 41 67 0.0 0.0 0.00 0.00 0.00 84 1015.8
20260510071539 41 67 0.0 2.0 0.00 0.00 0.00 84 1015.8
20260510070045 40 67 0.0 0.0 0.00 0.00 0.00 81 1015.6
20260510064537 41 67 0.0 0.0 0.00 0.00 0.00 80 1015.7
20260510063035 43 67 0.0 1.0 0.00 0.00 0.00 76 1015.8
20260510061525 45 67 0.0 0.0 0.00 0.00 0.00 76 1015.6
20260510060034 46 67 0.0 0.0 0.00 0.00 0.00 75 1015.7
20260510054523 46 67 0.0 4.0 0.00 0.00 0.00 74 1015.4
20260510053020 47 67 0.0 0.0 0.00 0.00 0.00 73 1015.5
20260510051519 47 67 0.0 0.0 0.00 0.00 0.00 75 1015.4
20260510050022 47 67 0.0 2.0 0.00 0.00 0.00 73 1015.2
20260510044518 46 67 0.0 3.0 0.00 0.00 0.00 77 1015.2
20260510043014 45 67 0.0 0.0 0.00 0.00 0.00 74 1015.1
20260510041512 46 67 0.0 1.0 0.00 0.00 0.00 71 1014.9
20260510040011 48 67 0.0 1.0 0.00 0.00 0.00 69 1014.7
20260510034504 48 67 0.0 3.0 0.00 0.00 0.00 71 1014.5
20260510033002 48 67 1.0 4.0 0.00 0.00 0.00 71 1014.2
20260510031605 48 67 0.0 2.0 0.00 0.00 0.00 69 1014.0
20260510024557 55 39 0.0 0.0 0.00 0.00 0.00 59 1013.4
20260510023054 57 39 0.0 0.0 0.00 0.00 0.00 55 1013.2
20260510021642 59 39 0.0 0.0 0.00 0.00 0.00 55 1013.0
20260510020058 60 39 0.0 0.0 0.00 0.00 0.00 55 1012.9
20260510014558 59 39 0.0 0.0 0.00 0.00 0.00 57 1012.9
20260510013101 60 39 0.0 0.0 0.00 0.00 0.00 55 1012.9
20260510011552 60 39 0.0 0.0 0.00 0.00 0.00 54 1012.8
20260510010057 61 39 0.0 0.0 0.00 0.00 0.00 49 1012.8
20260510004550 61 39 0.0 0.0 0.00 0.00 0.00 52 1012.8
20260510003051 62 39 0.0 4.0 0.00 0.00 0.00 51 1012.8
20260510001550 61 360 1.0 4.0 0.00 0.00 0.00 55 1012.8
20260510000050 59 347 0.0 3.0 0.00 0.00 0.00 58 1013.0
20260509234549 59 347 2.0 5.0 0.00 0.00 0.00 57 1013.0
20260509233048 61 250 0.0 3.0 0.00 0.00 0.00 53 1013.0
20260509231550 61 281 0.0 2.0 0.00 0.00 0.00 47 1012.7
20260509230050 62 282 1.0 7.0 0.00 0.00 0.00 44 1012.7
20260509224545 62 247 0.0 5.0 0.00 0.00 0.00 40 1012.7
20260509223048 63 232 0.0 11.0 0.00 0.00 0.00 40 1012.7
20260509221545 63 261 6.0 11.0 0.00 0.00 0.00 40 1012.7
20260509220047 63 207 5.0 11.0 0.00 0.00 0.00 40 1012.8
20260509214545 63 216 4.0 9.0 0.00 0.00 0.00 39 1012.9
20260509213048 63 289 0.0 4.0 0.00 0.00 0.00 39 1012.9
20260509211540 62 292 0.0 3.0 0.00 0.00 0.00 39 1012.9